Home   Weather   Dubbo   Past weeks

Flag for Australia Past Weather in Dubbo, New South Wales, Australia — Yesterday and Last 2 Weeks

Now
64 °F

Scattered clouds.


Feels Like: 64 °F
Forecast: 42 / 60 °F
Wind: 17 mph from Southwest

Location: Dubbo Airport

Current Time: Sep 25, 2016 at 3:32:45 PM

Latest Report: Sep 25, 2016 at 3:00 PM


Visibility: N/A

Pressure: 29.80 "Hg

Humidity: 68%

Dew Point: 54 °F

Location of DubboLocation

Past Weather in Dubbo — Graph

°F

Dubbo Temperature Yesterday

Maximum temperature yesterday: 68 °F (at 1:00 PM)
Minimum temperature yesterday: 43 °F (at 4:00 AM)
Average temperature yesterday: 55 °F

High & Low Weather Summary for the Past Weeks

 TemperatureHumidityPressure
High68 °F (Sep 13, 1:00 PM)100% (Sep 11, 5:00 AM)30.21 "Hg (Sep 11, 5:00 AM)
Low37 °F (Sep 20, 2:00 AM)45% (Sep 15, 12:00 PM)29.62 "Hg (Sep 18, 3:00 PM)
Average55 °F80%29.99 "Hg
* Reported Sep 10 2:00 PM — Sep 25 2:00 PM, Dubbo, Weather by CustomWeather, © 2016

Note: Actual official high and low records may vary slightly from our data, if they occured in-between our weather recording intervals... More about our weather records

Advertising

Dubbo Weather History for the Previous 24 Hours

Scroll right to see more
 ConditionsComfort  
Time TempWeatherWind HumidityBarometerVisibility
2:00 PM
Sun, Sep 25
59 °FBroken clouds.17 mph77%29.80 "HgN/A
1:30 PM63 °FBroken clouds.12 mph68%29.80 "HgN/A
1:00 PM64 °FBroken clouds.13 mph68%29.80 "HgN/A
12:00 PM61 °FMore clouds than sun.14 mph77%29.80 "HgN/A
11:30 AM61 °FMore clouds than sun.14 mph77%29.83 "HgN/A
11:00 AM57 °FBroken clouds.14 mph82%29.80 "HgN/A
10:30 AM59 °FMostly cloudy.6 mph77%29.83 "HgN/A
10:00 AM57 °FMore clouds than sun.6 mph82%29.80 "HgN/A
9:00 AM55 °FCloudy.7 mph88%29.80 "HgN/A
8:30 AM54 °FOvercast.7 mph94%29.80 "HgN/A
8:00 AM54 °FOvercast.8 mph94%29.80 "HgN/A
7:00 AM54 °FMostly cloudy.7 mph94%29.80 "HgN/A
6:30 AM52 °FBroken clouds.9 mph100%29.77 "HgN/A
6:00 AM54 °FMostly cloudy.7 mph94%29.77 "Hg6 mi
5:55 AM54 °FMostly cloudy.8 mph94%29.77 "HgN/A
5:00 AM54 °FMostly cloudy.6 mph100%29.77 "Hg4 mi
4:00 AM55 °FPartly cloudy.7 mph94%29.77 "Hg5 mi
3:00 AM55 °FOvercast.5 mph94%29.74 "HgN/A
2:30 AM55 °FOvercast.6 mph94%29.74 "HgN/A
2:00 AM55 °FOvercast.No wind94%29.77 "HgN/A
1:30 AM55 °FMostly cloudy.No wind94%29.77 "HgN/A
1:00 AM55 °FOvercast.No wind94%29.80 "HgN/A
12:30 AM55 °FMostly cloudy.No wind94%29.80 "HgN/A
12:00 AM57 °FPartly cloudy.2 mph82%29.80 "HgN/A
11:30 PM
Sat, Sep 24
57 °FMostly cloudy.5 mph88%29.80 "HgN/A
11:00 PM55 °FMostly cloudy.1 mph88%29.80 "HgN/A
10:00 PM57 °FMostly cloudy.No wind82%29.83 "HgN/A
9:00 PM57 °FOvercast.No wind82%29.80 "HgN/A
8:00 PM57 °FClear.No wind77%29.83 "HgN/A
7:30 PM59 °FClear.3 mph72%29.83 "HgN/A
7:00 PM57 °FClear.3 mph77%29.83 "HgN/A
6:30 PM59 °FClear.6 mph72%29.80 "HgN/A
6:00 PM59 °FSunny.7 mph72%29.83 "HgN/A
5:00 PM66 °FSunny.9 mph52%29.80 "HgN/A
4:00 PM66 °FSunny.12 mph52%29.80 "HgN/A
3:00 PM68 °FSunny.15 mph53%29.80 "HgN/A
Weather by CustomWeather, © 2016

See weather overviewHow to use our weather pages